Weather History for Skagway, AK

Change the Weather History Date:

Saturday, April 14, 2012

  Actual Average Record
Temperature  
Mean Temperature 45 °F -  
Max Temperature 54 °F 46 °F 56 °F (1990)
Min Temperature 39 °F 31 °F 24 °F (1986)
Degree Days  
Heating Degree Days 20    
Moisture  
Dew Point 38 °F    
Average Humidity 82    
Maximum Humidity 96    
Minimum Humidity 52    
Precipitation  
Precipitation 0.01 in - - ()
Sea Level Pressure  
Sea Level Pressure 30.00 in    
Wind  
Wind Speed 2 mph (SW)    
Max Wind Speed 14 mph    
Max Gust Speed -    
Visibility 10 miles    
Events Rain    
Averages and records for this station are not official NWS values.
T = Trace of Precipitation, MM = Missing Value Source: NWS Daily Summary

Daily Weather History Graph

Daily Weather History Graph

Search for Another Location

Airport:

Trip Planner

Search our weather history database for the weather conditions in past years. The results will help you decide how hot, cold, wet, or windy it might be!

Date:

Astronomy

Apr. 14, 2012 Rise Set
Actual Time 5:47 AM AKDT 8:17 PM AKDT
Civil Twilight 5:02 AM AKDT 9:02 PM AKDT
Nautical Twilight 4:02 AM AKDT 10:02 PM AKDT
Astronomical Twilight 2:42 AM AKDT 11:25 PM AKDT
Moon 3:45 AM AKDT (4/14) 12:52 PM AKDT (4/14)
Length of Visible Light 16h 00m
Length of Day
14h 29m
Waning Crescent, 36% of the Moon is Illuminated
Apr 14
Waning Crescent
Apr 20
New
Apr 29
First Quarter
May 5
Full
May 12
Last Quarter

Hourly Weather History & Observations

Time (AKDT) Temp. Windchill Dew Point Humidity Pressure Visibility Wind Dir Wind Speed Gust Speed Precip Events Conditions
12:53 AM 42.1 °F - 34.0 °F 73% 29.95 in 10.0 mi Calm Calm - N/A   Overcast
1:53 AM 42.1 °F - 35.1 °F 76% 29.97 in 10.0 mi Calm Calm - N/A   Overcast
2:53 AM 41.0 °F - 34.0 °F 76% 29.97 in 10.0 mi Calm Calm - N/A   Overcast
3:53 AM 39.9 °F - 35.1 °F 83% 29.96 in 10.0 mi Calm Calm - N/A   Overcast
4:53 AM 39.9 °F 36.7 °F 34.0 °F 79% 29.97 in 10.0 mi NE 4.6 mph - N/A   Overcast
5:53 AM 39.9 °F - 35.1 °F 83% 29.98 in 10.0 mi Calm Calm - 0.00 in   Overcast
6:53 AM 39.9 °F - 35.1 °F 83% 29.99 in 10.0 mi Calm Calm - N/A   Overcast
7:53 AM 41.0 °F - 35.1 °F 79% 29.98 in 10.0 mi Calm Calm - N/A   Overcast
8:53 AM 43.0 °F - 36.0 °F 76% 29.97 in 10.0 mi Calm Calm - N/A   Overcast
9:53 AM 39.9 °F 35.1 °F 36.0 °F 86% 29.99 in 10.0 mi WSW 6.9 mph - 0.00 in Rain Light Rain
10:53 AM 51.1 °F - 34.0 °F 52% 29.98 in 10.0 mi NE 13.8 mph - 0.00 in   Overcast
11:53 AM 48.0 °F - 37.0 °F 66% 29.99 in 10.0 mi Calm Calm - N/A   Overcast
12:53 PM 46.0 °F 41.0 °F 37.9 °F 73% 29.99 in 10.0 mi SSW 10.4 mph - N/A   Mostly Cloudy
1:53 PM 46.0 °F 40.2 °F 39.0 °F 76% 30.00 in 10.0 mi SSW 12.7 mph - 0.00 in   Mostly Cloudy
2:53 PM 44.1 °F 39.5 °F 39.9 °F 85% 30.02 in 10.0 mi WSW 8.1 mph - 0.00 in Rain Light Rain
3:53 PM 44.1 °F - 41.0 °F 89% 30.03 in 10.0 mi Calm Calm - 0.00 in Rain Light Rain
4:53 PM 46.0 °F 44.8 °F 42.1 °F 86% 30.02 in 10.0 mi SSW 3.5 mph - 0.00 in   Overcast
5:53 PM 44.1 °F 39.0 °F 41.0 °F 89% 30.03 in 10.0 mi SW 9.2 mph - 0.00 in Rain Light Rain
6:53 PM 44.1 °F - 41.0 °F 89% 30.03 in 10.0 mi Calm Calm - 0.01 in Rain Light Rain
7:53 PM 44.1 °F - 41.0 °F 89% 30.03 in 10.0 mi Calm Calm - 0.00 in   Overcast
8:26 PM 42.8 °F 38.0 °F 39.2 °F 87% 30.03 in 10.0 mi SSW 8.1 mph - N/A   Overcast
8:53 PM 42.1 °F 40.2 °F 39.9 °F 92% 30.04 in 10.0 mi SW 3.5 mph - 0.00 in Rain Light Rain
9:53 PM 42.1 °F - 41.0 °F 96% 30.05 in 10.0 mi Calm Calm - 0.00 in   Overcast
10:53 PM 42.1 °F - 39.9 °F 92% 30.06 in 10.0 mi Calm Calm - N/A   Overcast
11:44 PM 41.0 °F - 39.2 °F 93% 30.05 in 10.0 mi Calm Calm - 0.00 in Rain Light Rain
11:53 PM 41.0 °F - 39.0 °F 93% 30.05 in 10.0 mi Calm Calm - 0.00 in   Overcast